Zurück zum Katalog

KUIPER-00453

AktivKommunikationLEO
NORAD 68947·PAYLOAD·🇺🇸 United States

Gestartet Apr 30, 2026 von Guiana Space Centre

Loading…

Nächste Überflüge (nächste 24 Stunden)

TLE

AktuellSource: CelesTrak SupGP

Epoche: Sep 14, 2026, 14:55 UTC

1 68947C 26098AE  26257.62199074  .00005536  00000+0  72465-3 0  2571
2 68947  51.8996  12.6123 0002060 127.7924  39.0207 14.79924714    19

Verfolge KUIPER-00453 in Echtzeit mit AllMySat

Download on the App Store